Terug naar catalogus

STARLINK-37879

ActiefCommunicatieSSO
NORAD 69490·PAYLOAD·🇺🇸 United States

Gelanceerd Jun 11, 2026 vanaf Vandenberg Space Force Base

Loading…

Volgende Passages (komende 24 uur)

TLE

VersSource: CelesTrak SupGP

Epoch: Sep 15, 2026, 03:16 UTC

1 69490C 26131N   26258.13659722 -.00049579  00000+0 -15392-2 0  2584
2 69490  97.2833 279.0921 0001406  93.7481   4.8809 15.33461527    12

Volg STARLINK-37879 in realtime met AllMySat

Download on the App Store